• Join FlightAware (Why Join?)
  • Login
  • US Flag 
06:00AM EDT


 

Airport Tracker/Info


-or-


 

Live Flight TrackerFlight Track Log ✈ EJA829P ✈ 14-Nov-2013 ✈ KCLT - KTOL

Flight Track Log - Related Links

Times and Time Zones

All times are in EST time to prevent confusion due to time zone crossing. See the EJA829P flight status page for this flight to view local times or setup timezone preferences in your user account.

Time Position Orientation Groundspeed Altitude Reporting Facility
EST Latitude Longitude Course Direction KTS MPH feet Rate Location/Type
07:20PM 35.1992 -80.9378 176° South 171 197 1,800  Level Atlanta Center
07:21PM 35.1553 -80.9344 176° South 207 238 5,100 4,020 Climbing Atlanta Center
07:22PM 35.1364 -80.8514 106° East 300 345 9,200 3,600 Climbing Atlanta Center
07:23PM 35.2111 -80.8308 13° North 317 365 12,300 2,400 Climbing Atlanta Center
07:24PM 35.2906 -80.8428 353° North 317 365 14,000 840 Climbing Atlanta Center
07:25PM 35.3889 -80.8517 356° North 339 390 14,000 780 Level Atlanta Center
07:26PM 35.4833 -80.8711 350° North 344 396 15,600 1,800 Climbing Atlanta Center
07:27PM 35.5803 -80.9081 343° North 354 407 17,700 1,800 Climbing Atlanta Center
07:28PM 35.6897 -80.9450 345° North 367 422 19,200 1,500 Climbing Atlanta Center
07:29PM 35.7928 -80.9769 346° North 372 428 20,800 1,440 Climbing Atlanta Center
07:30PM 35.8958 -81.0139 344° North 372 428 22,100 1,140 Climbing Atlanta Center
07:31PM 36.0075 -81.0561 343° North 406 467 23,100 1,020 Climbing Atlanta Center
07:32PM 36.1147 -81.0906 345° North 406 467 24,200 1,080 Climbing Atlanta Center
07:33PM 36.2239 -81.1278 345° North 401 461 25,300 960 Climbing Atlanta Center
07:34PM 36.3311 -81.1653 344° North 401 461 26,200 900 Climbing Atlanta Center
07:35PM 36.4406 -81.2025 345° North 401 461 27,100 900 Climbing Atlanta Center
07:36PM 36.5478 -81.2400 344° North 401 461 28,000 840 Climbing Atlanta Center
07:39PM 36.7906 -81.3247 344° North 383 441 30,000 540 Climbing Indianapolis Center
07:40PM 36.8919 -81.3600 344° North 387 445 30,000  Level Indianapolis Center
07:41PM 37.0128 -81.4014 345° North 387 445 30,000  Level Indianapolis Center
07:42PM 37.1217 -81.4389 345° North 396 456 30,000  Level Indianapolis Center
07:43PM 37.2289 -81.4769 344° North 400 460 30,000  Level Indianapolis Center
07:44PM 37.3353 -81.5150 344° North 398 458 30,000  Level Indianapolis Center
07:45PM 37.4428 -81.5528 344° North 400 460 30,000  Level Indianapolis Center
07:46PM 37.5508 -81.5911 344° North 402 463 30,000  Level Indianapolis Center
07:47PM 37.6772 -81.6361 344° North 404 465 30,000  Level Indianapolis Center
07:48PM 37.7861 -81.6756 344° North 405 466 30,000  Level Indianapolis Center
07:49PM 37.8808 -81.7094 344° North 404 465 30,000  Level Indianapolis Center
07:50PM 38.0136 -81.7561 345° North 410 472 30,000  Level Indianapolis Center
07:51PM 38.1236 -81.7958 344° North 408 470 30,000  Level Indianapolis Center
07:52PM 38.2347 -81.8367 344° North 412 474 30,000  Level Indianapolis Center
07:53PM 38.3472 -81.8772 344° North 415 478 30,000  Level Indianapolis Center
07:54PM 38.4594 -81.9194 344° North 416 479 30,000  Level Indianapolis Center
07:55PM 38.5728 -81.9600 344° North 417 480 30,000  Level Indianapolis Center
07:56PM 38.6864 -82.0014 344° North 419 482 30,000  Level Indianapolis Center
07:57PM 38.7978 -82.0508 341° North 420 483 30,000  Level Indianapolis Center
07:58PM 38.9042 -82.1133 335° Northwest 418 481 30,000  Level Indianapolis Center
07:59PM 39.0100 -82.1736 336° Northwest 414 476 30,000  Level Indianapolis Center
08:00PM 39.1367 -82.2486 335° Northwest 416 479 30,000  Level Indianapolis Center
08:01PM 39.2436 -82.3094 336° Northwest 417 480 30,000  Level Indianapolis Center
08:02PM 39.3508 -82.3706 336° Northwest 419 482 30,000  Level Indianapolis Center
08:03PM 39.4550 -82.4328 335° Northwest 422 486 30,000  Level Indianapolis Center
08:04PM 39.5622 -82.4939 336° Northwest 422 486 30,000  Level Indianapolis Center
08:05PM 39.6675 -82.5572 335° Northwest 418 481 30,000  Level Indianapolis Center
08:06PM 39.7958 -82.6317 336° Northwest 423 487 30,000  Level Indianapolis Center
08:08PM 39.9028 -82.6953 335° Northwest 426 490 30,000  Level Indianapolis Center
08:09PM 40.0103 -82.7600 335° Northwest 427 491 30,000  Level Indianapolis Center
08:10PM 40.1150 -82.8217 336° Northwest 419 482 30,000 -420 Level Indianapolis Center
08:11PM 40.2219 -82.8856 335° Northwest 425 489 29,200 -1,500 Descending Indianapolis Center
08:12PM 40.3269 -82.9492 335° Northwest 422 486 27,000 -2,400 Descending Indianapolis Center
08:13PM 40.4561 -83.0264 336° Northwest 427 491 24,300 -1,560 Descending Indianapolis Center
08:14PM 40.5625 -83.0917 335° Northwest 422 486 23,800 -1,080 Descending Indianapolis Center
08:15PM 40.6678 -83.1547 336° Northwest 413 475 22,200 -1,140 Descending Indianapolis Center
08:16PM 40.7667 -83.2153 335° Northwest 406 467 21,500 -1,500 Descending Indianapolis Center
08:17PM 40.8708 -83.2792 335° Northwest 393 452 19,100 -2,100 Descending Indianapolis Center
08:18PM 40.9664 -83.3375 335° Northwest 378 435 17,200 -2,040 Descending Indianapolis Center
08:19PM 41.0578 -83.3931 335° Northwest 361 415 15,000 -2,100 Descending Indianapolis Center
08:20PM 41.1461 -83.4475 335° Northwest 349 402 12,900 -2,280 Descending Indianapolis Center
08:21PM 41.2444 -83.5022 337° Northwest 328 377 10,400 -2,340 Descending Indianapolis Center
08:22PM 41.3203 -83.5289 345° North 285 328 8,100 -2,460 Descending Indianapolis Center
08:23PM 41.3925 -83.5542 345° North 270 311 5,400 -2,520 Descending Indianapolis Center
08:24PM 41.4647 -83.5747 348° North 267 307 3,000 -1,200 Descending Indianapolis Center
08:25PM 41.5356 -83.5933 349° North 261 300 3,000  Level Indianapolis Center
08:26PM 41.5986 -83.6158 345° North 253 291 3,000 -360 Level Indianapolis Center
08:27PM 41.6311 -83.6692 309° West 177 204 2,200 -420 Descending Cleveland Center
08:28PM 41.6181 -83.7089 246° West 140 161 2,100 -360 Descending Cleveland Center
08:29PM 41.6075 -83.7411 246° West 116 133 1,500 -600 Descending Cleveland Center
08:31PM 41.5833 -83.8000 323° Northwest  Level FlightAware Approximate